Hourly Weather Russkoe Makulovo

Today, 13 April, Tuesday

Time Temperature Precipitation Wind Pressure Humidity
00:00 +4°C° 0 mm 3 mps 771 mmHg 94%
01:00 +5°C° 0 mm 2 mps 771 mmHg 95%
02:00 +5°C° 0 mm 2 mps 770 mmHg 96%
03:00 +5°C° 0 mm 2 mps 770 mmHg 98%
04:00 +5°C° 0 mm 2 mps 770 mmHg 98%
05:00 +6°C° 0 mm 2 mps 770 mmHg 98%
06:00 +6°C° 0 mm 2 mps 770 mmHg 99%
07:00 +7°C° 0 mm 2 mps 770 mmHg 95%
08:00 +8°C° 0 mm 2 mps 770 mmHg 91%
09:00 +10°C° 0 mm 2 mps 770 mmHg 88%
10:00 +12°C° 0 mm 3 mps 770 mmHg 80%
11:00 +14°C° 0 mm 3 mps 769 mmHg 72%
12:00 +17°C° 0 mm 3 mps 769 mmHg 64%
13:00 +18°C° 0 mm 4 mps 769 mmHg 60%
14:00 +18°C° 0 mm 4 mps 768 mmHg 57%
15:00 +19°C° 0 mm 4 mps 768 mmHg 53%
16:00 +18°C° 0 mm 3 mps 768 mmHg 58%
17:00 +17°C° 0 mm 3 mps 767 mmHg 63%
18:00 +16°C° 0 mm 2 mps 767 mmHg 68%
19:00 +14°C° 0 mm 2 mps 767 mmHg 71%
20:00 +13°C° 0 mm 2 mps 767 mmHg 73%
21:00 +12°C° 0 mm 2 mps 767 mmHg 76%
22:00 +12°C° 0 mm 2 mps 767 mmHg 77%
23:00 +10°C° 0 mm 2 mps 767 mmHg 79%

Tomorrow, 14 April, Wednesday

Time Temperature Precipitation Wind Pressure Humidity
00:00 +10°C° 0 mm 2 mps 767 mmHg 81%
01:00 +10°C° 0 mm 2 mps 767 mmHg 81%
02:00 +9°C° 0 mm 2 mps 767 mmHg 82%
03:00 +9°C° 0 mm 2 mps 766 mmHg 83%
04:00 +9°C° 0 mm 2 mps 766 mmHg 82%
05:00 +8°C° 0 mm 2 mps 766 mmHg 82%
06:00 +8°C° 0 mm 2 mps 766 mmHg 81%
07:00 +10°C° 0 mm 2 mps 766 mmHg 73%
08:00 +12°C° 0 mm 3 mps 766 mmHg 64%
09:00 +14°C° 0 mm 3 mps 766 mmHg 56%
10:00 +15°C° 0 mm 4 mps 765 mmHg 52%
11:00 +17°C° 0 mm 4 mps 765 mmHg 48%
12:00 +18°C° 0 mm 4 mps 765 mmHg 44%
13:00 +18°C° 0 mm 4 mps 764 mmHg 45%
14:00 +19°C° 0 mm 4 mps 764 mmHg 47%
15:00 +19°C° 0 mm 4 mps 763 mmHg 49%
16:00 +18°C° 0 mm 4 mps 763 mmHg 55%
17:00 +17°C° 0 mm 3 mps 762 mmHg 60%
18:00 +16°C° 0 mm 2 mps 762 mmHg 66%
19:00 +15°C° 0 mm 2 mps 762 mmHg 70%
20:00 +14°C° 0 mm 2 mps 762 mmHg 75%
21:00 +13°C° 0 mm 2 mps 762 mmHg 79%
22:00 +12°C° 0 mm 2 mps 762 mmHg 81%
23:00 +12°C° 0 mm 2 mps 761 mmHg 82%

Day after tomorrow, 15 April, Thursday

Time Temperature Precipitation Wind Pressure Humidity
00:00 +10°C° 0 mm 2 mps 761 mmHg 84%
01:00 +10°C° 0 mm 2 mps 761 mmHg 85%
02:00 +11°C° 0 mm 1 mps 761 mmHg 85%
03:00 +10°C° 0 mm 1 mps 761 mmHg 86%
04:00 +10°C° 0 mm 1 mps 760 mmHg 86%
05:00 +10°C° 0 mm 1 mps 760 mmHg 86%
06:00 +9°C° 0 mm 2 mps 760 mmHg 86%
07:00 +12°C° 0 mm 2 mps 760 mmHg 80%
08:00 +14°C° 0 mm 2 mps 760 mmHg 74%
09:00 +15°C° 0 mm 2 mps 760 mmHg 67%
10:00 +16°C° 0 mm 3 mps 759 mmHg 62%
11:00 +17°C° 0 mm 3 mps 759 mmHg 57%
12:00 +18°C° 0 mm 3 mps 759 mmHg 52%
13:00 +19°C° 0 mm 3 mps 758 mmHg 49%
14:00 +19°C° 0 mm 3 mps 758 mmHg 45%
15:00 +19°C° 0 mm 3 mps 758 mmHg 42%
16:00 +19°C° 0 mm 2 mps 757 mmHg 46%
17:00 +18°C° 0 mm 2 mps 757 mmHg 50%
18:00 +17°C° 0 mm 2 mps 757 mmHg 53%
19:00 +16°C° 0 mm 1 mps 757 mmHg 56%
20:00 +15°C° 0 mm 1 mps 757 mmHg 60%
21:00 +13°C° 0 mm 1 mps 757 mmHg 63%
22:00 +13°C° 0 mm 1 mps 757 mmHg 64%
23:00 +11°C° 0 mm 0 mps 757 mmHg 66%

16 April, Friday

Time Temperature Precipitation Wind Pressure Humidity
00:00 +11°C° 0 mm 0 mps 757 mmHg 68%
01:00 +11°C° 0 mm 0 mps 756 mmHg 70%
02:00 +10°C° 0 mm 0 mps 756 mmHg 72%
03:00 +10°C° 0 mm 0 mps 756 mmHg 74%
04:00 +10°C° 0 mm 1 mps 756 mmHg 77%
05:00 +9°C° 0 mm 2 mps 757 mmHg 80%
06:00 +9°C° 0 mm 2 mps 757 mmHg 83%
07:00 +9°C° 0 mm 3 mps 757 mmHg 83%
08:00 +10°C° 0 mm 4 mps 757 mmHg 82%
09:00 +11°C° 0 mm 4 mps 757 mmHg 82%
10:00 +10°C° 0 mm 5 mps 757 mmHg 79%
11:00 +10°C° 0 mm 5 mps 758 mmHg 76%
12:00 +12°C° 0 mm 5 mps 758 mmHg 74%
13:00 +12°C° 0 mm 5 mps 758 mmHg 71%
14:00 +12°C° 0 mm 5 mps 758 mmHg 69%
15:00 +11°C° 0 mm 6 mps 758 mmHg 66%
16:00 +10°C° 0 mm 6 mps 759 mmHg 69%
17:00 +9°C° 0 mm 6 mps 759 mmHg 71%
18:00 +8°C° 0 mm 5 mps 759 mmHg 74%
19:00 +8°C° 0 mm 5 mps 759 mmHg 75%
20:00 +7°C° 0 mm 5 mps 760 mmHg 77%
21:00 +7°C° 0 mm 4 mps 760 mmHg 78%
22:00 +6°C° 0 mm 4 mps 760 mmHg 76%
23:00 +6°C° 0 mm 4 mps 760 mmHg 73%

17 April, Saturday

Time Temperature Precipitation Wind Pressure Humidity
00:00 +5°C° 0 mm 4 mps 760 mmHg 71%
01:00 +4°C° 0 mm 3 mps 760 mmHg 71%
02:00 +3°C° 0 mm 3 mps 761 mmHg 72%
03:00 +2°C° 0 mm 3 mps 761 mmHg 72%
04:00 +2°C° 0 mm 3 mps 761 mmHg 71%
05:00 +2°C° 0 mm 3 mps 761 mmHg 70%
06:00 +2°C° 0 mm 3 mps 762 mmHg 69%
07:00 +3°C° 0 mm 4 mps 762 mmHg 61%
08:00 +5°C° 0 mm 5 mps 762 mmHg 53%
09:00 +5°C° 0 mm 6 mps 762 mmHg 45%
10:00 +7°C° 0 mm 6 mps 763 mmHg 43%
11:00 +6°C° 0 mm 7 mps 763 mmHg 40%
12:00 +7°C° 0 mm 8 mps 763 mmHg 38%
13:00 +6°C° 0 mm 8 mps 763 mmHg 36%
14:00 +6°C° 0 mm 8 mps 764 mmHg 34%
15:00 +6°C° 0 mm 8 mps 764 mmHg 31%
16:00 +5°C° 0 mm 7 mps 764 mmHg 33%
17:00 +5°C° 0 mm 6 mps 765 mmHg 34%
18:00 +4°C° 0 mm 6 mps 765 mmHg 36%
19:00 +3°C° 0 mm 5 mps 765 mmHg 38%
20:00 +3°C° 0 mm 4 mps 766 mmHg 40%
21:00 +2°C° 0 mm 3 mps 766 mmHg 43%
22:00 +1°C° 0 mm 3 mps 766 mmHg 44%
23:00 +1°C° 0 mm 2 mps 767 mmHg 46%

18 April, Sunday

Time Temperature Precipitation Wind Pressure Humidity
00:00 -1°C° 0 mm 2 mps 767 mmHg 48%
01:00 -1°C° 0 mm 2 mps 767 mmHg 48%
02:00 -1°C° 0 mm 2 mps 767 mmHg 48%
03:00 +1°C° 0 mm 1 mps 768 mmHg 48%
04:00 +1°C° 0 mm 1 mps 768 mmHg 47%
05:00 +2°C° 0 mm 1 mps 768 mmHg 45%
06:00 +2°C° 0 mm 1 mps 768 mmHg 44%
07:00 +3°C° 0 mm 2 mps 768 mmHg 39%
08:00 +3°C° 0 mm 4 mps 767 mmHg 35%
09:00 +5°C° 0 mm 5 mps 767 mmHg 31%
10:00 +6°C° 0 mm 5 mps 767 mmHg 33%
11:00 +7°C° 0 mm 6 mps 766 mmHg 36%
12:00 +8°C° 0 mm 7 mps 766 mmHg 38%
13:00 +9°C° 0 mm 7 mps 765 mmHg 39%
14:00 +9°C° 0 mm 7 mps 765 mmHg 39%
15:00 +10°C° 0 mm 7 mps 764 mmHg 40%
16:00 +10°C° 0 mm 6 mps 764 mmHg 43%
17:00 +9°C° 0 mm 6 mps 764 mmHg 47%
18:00 +9°C° 0 mm 5 mps 764 mmHg 50%
19:00 +8°C° 0 mm 5 mps 764 mmHg 55%
20:00 +6°C° 0 mm 4 mps 764 mmHg 61%
21:00 +5°C° 0 mm 4 mps 764 mmHg 66%
22:00 +5°C° 0 mm 3 mps 764 mmHg 69%
23:00 +4°C° 0 mm 3 mps 764 mmHg 73%
Show more